Location: North Hollywood Park
(34.1650°N, 118.3806°W)
Time: 07:34:56
(UTC+00:00)

Daily predictions for brighter satellites

Satellite Brightness Start Highest point End
(mag) Time Altitude Azimuth Time Altitude Azimuth Time Altitude Azimuth
BREEZE-M DEB (TANK) 4.3 12:05:26 18° ENE 12:05:26 18° ENE 12:06:15 10° ENE
ADEOS 4.3 12:01:59 10° NNE 12:07:05 53° E 12:12:10 10° S
Cosmos 1484 Rocket 4.0 12:03:51 10° NNE 12:07:28 39° E 12:10:59 10° S
Cosmos 292 Rocket 4.4 12:15:44 41° SSW 12:15:44 41° SSW 12:18:59 10° S
Cosmos 1833 Rocket 2.7 12:17:48 56° WNW 12:18:02 57° WNW 12:23:36 10° NNE
Lacrosse 5 rocket 3.4 12:29:12 14° N 12:29:12 14° N 12:30:01 10° N
Cosmos 44 Rocket 3.3 12:25:06 31° NNW 12:27:40 89° SW 12:32:51 10° SSE
ATLAS 3B R/B 2.5 12:26:50 30° SW 12:30:09 64° WNW 12:36:43 10° NNE
Meteor 1-31 Rocket 3.3 12:28:07 10° NNE 12:32:01 61° E 12:35:53 10° S
Meteor 1-24 Rocket 3.9 12:27:21 10° S 12:32:52 76° E 12:38:37 10° NNE
ATLAS CENTAUR Rocket 3.8 12:36:30 16° SW 12:36:30 16° SW 12:38:51 10° S
METEOR-M 4.2 12:31:26 10° NNE 12:36:48 78° ESE 12:42:07 10° S
USA 290 2.6 12:37:59 50° N 12:37:59 50° N 12:40:31 10° NNE
ISS -1.2 12:39:29 12° N 12:39:29 12° N 12:40:07 10° N
Cosmos 2082 Rocket 2.1 12:33:57 10° SSW 12:39:31 69° WNW 12:45:07 10° NNE
Cosmos 2369 4.1 12:34:06 10° NNW 12:39:43 63° ENE 12:45:17 10° SSE
Cosmos 2228 3.3 12:35:29 10° N 12:39:51 70° E 12:44:12 10° SSE
ATLAS CENTAUR R/B 4.3 12:37:32 10° SSE 12:40:06 16° ESE 12:42:36 10° ENE
ADEOS Rocket 3.0 12:36:28 10° S 12:41:42 44° W 12:46:56 10° NNW
Cosmos 1656 3.9 12:41:10 20° NW 12:44:53 49° WSW 12:50:18 10° S
Cosmos 1606 Rocket 3.6 12:43:10 10° N 12:47:39 82° E 12:52:07 10° S
ERS-2 2.1 12:46:44 10° S 12:50:18 58° WSW 12:53:33 12° NNW
COSMO-SKYMED 1 3.9 12:46:33 10° SE 12:50:36 41° ENE 12:54:42 10° N
SAR-Lupe-4 4.1 12:47:32 10° SSE 12:51:03 60° ENE 12:54:35 10° N
ALOS 2.3 12:46:44 10° N 12:51:18 56° WNW 12:55:52 10° SSW
H-2A R/B 3.6 12:49:05 10° SSW 12:51:14 21° SW 12:51:14 21° SW
NOSS 8 (A) 4.3 12:52:51 21° SW 12:55:08 63° WNW 12:58:12 10° NNE
CZ-4B R/B 3.9 12:54:22 10° N 12:58:26 57° WNW 13:02:16 10° SSW
Cosmos 1092 Rocket 3.9 12:55:09 10° SSW 13:01:13 63° W 13:07:23 10° N
Meteor 2-5 Rocket 4.0 12:56:27 10° SSW 13:01:48 44° WNW 13:07:18 10° N
Cosmos 614 Rocket 4.0 12:56:54 10° SSW 13:02:03 81° ESE 13:07:12 10° NNE
Cosmos 2251 Rocket 3.8 12:58:05 10° SW 13:03:14 46° WNW 13:08:23 10° N
Cosmos 1400 Rocket 3.0 12:59:33 10° N 13:03:27 72° E 13:07:19 10° SSE
Cosmos 220 Rocket 4.0 13:04:03 10° NNW 13:08:28 69° WSW 13:12:49 10° S
Cosmos 1697 Rocket 2.7 13:02:56 10° NNW 13:08:30 60° WSW 13:14:02 10° S
SAR-Lupe-1 3.9 13:05:22 10° S 13:08:55 81° WSW 13:12:30 10° NNW
Okean 1-7 Rocket 3.5 13:08:07 10° S 13:12:40 75° W 13:17:12 10° N
CZ-2C R/B 4.2 13:13:22 10° NW 13:14:34 12° NW 13:14:34 12° NW
deb Chang Zheng 4 4.3 13:11:58 10° N 13:15:41 30° WNW 13:19:26 10° SW
Cosmos 2084 4.1 13:12:23 13° WSW 13:15:49 35° NW 13:19:52 10° NNE
SL-14 R/B 4.5 13:15:09 10° SW 13:18:14 22° WNW 13:21:22 10° NNW
FENGYUN 3A 4.3 13:13:46 10° N 13:18:35 33° WNW 13:23:22 10° SW
Cosmos 2058 Rocket 3.1 13:16:08 10° N 13:20:39 89° WSW 13:25:04 10° S
DELTA 2 R/B (1) 4.2 13:17:21 15° W 13:21:38 42° SSW 13:26:53 10° SE
Cosmos 1300 3.1 13:20:03 10° NNW 13:23:37 39° W 13:27:10 10° SSW
Cosmos 1892 Rocket 4.1 13:20:05 10° SW 13:24:03 35° W 13:28:03 10° NNW
Cosmos 1190 Rocket 4.5 13:20:04 10° S 13:25:16 66° ESE 13:30:27 10° NNE
H-2A R/B 3.7 13:21:26 10° NNE 13:25:38 48° E 13:29:38 10° S
Cosmos 1626 4.0 13:27:48 12° WNW 13:27:48 12° WNW 13:28:45 10° NW
SJ-12 4.4 13:25:18 10° N 13:29:06 38° WNW 13:32:53 10° SW
Cosmos 1980 Rocket 2.1 13:25:25 10° NNW 13:31:01 76° WSW 13:36:35 10° SSE
CZ-4B R/B 2.9 13:31:03 10° SW 13:33:31 18° W 13:35:59 10° NW
Cosmos 1315 Rocket 3.8 13:30:22 10° N 13:34:24 52° E 13:38:26 10° SSE
Cosmos 2098 Rocket 4.0 13:27:54 10° S 13:34:28 84° E 13:39:47 10° N
Abrixas rocket 4.2 13:33:42 10° NNW 13:35:44 18° NNE 13:37:47 10° ENE
Cosmos 2292 Rocket 3.6 13:33:10 10° S 13:36:03 55° E 13:39:20 10° NNE
SKYMED 2 3.8 13:34:25 10° S 13:38:36 49° W 13:42:50 10° NNW
Spot 2 4.3 13:39:06 10° N 13:43:43 73° WNW 13:48:35 10° SSW
SJ-7 4.3 13:41:26 10° N 13:45:26 79° WNW 13:49:23 10° SSW
